Terug naar catalogus

VNREDSAT 1

ActiefWetenschapSSO
NORAD 39160·PAYLOAD·🇻🇳 Vietnam

Gelanceerd May 7, 2013 vanaf Guiana Space Centre

Loading…

Volgende Passages (komende 24 uur)

TLE

VersSource: Space-Track

Epoch: Sep 14, 2026, 21:58 UTC

1 39160U 13021B   26257.91555568  .00000183  00000-0  42745-4 0  9990
2 39160  97.8993 307.8388 0001254  82.5181 277.6165 14.64743798713424

Volg VNREDSAT 1 in realtime met AllMySat

Download on the App Store